Regional Weather Roundup
Issued by NWS

Home | Current Version | Previous Version | Text Only | Print | Product List | Glossary On
Versions: 1 2 3 4 5 6 7 8 9 10 11 12 13 14 15 16 17 18 19 20 21 22 23 24 25 26 27 28 29 30 31 32 33 34 35 36 37 38 39 40 41 42 43 44 45 46 47 48 49 50
000
ASUS44 KLIX 010410
RWRLA
LOUISIANA WEATHER ROUNDUP
NATIONAL WEATHER SERVICE NEW ORLEANS LA
1100 PM CDT FRI OCT 31 2014

NOTE: "FAIR" INDICATES FEW OR NO CLOUDS BELOW 12,000 FEET WITH NO
      SIGNIFICANT WEATHER AND/OR OBSTRUCTIONS TO VISIBILITY.
      SKY/WX - SKY CONDITION AND SIGNIFICANT WEATHER.
      TMP - AIR TEMPERATURE.    DP   - DEWPOINT TEMPERATURE.
      RH  - RELATIVE HUMIDITY.  PRES - PRESSURE.
      HX  - HEAT INDEX.         WCI  - WIND CHILL INDEX.

*  THESE STATIONS ARE NOT NWS OR FAA STATIONS AND ARE NOT UNDER
   NWS QUALITY CONTROL.

LAZ040-048-061>063-065-066-069-010500-
SOUTHEAST LOUISIANA

CITY           SKY/WX    TMP DP  RH WIND       PRES   REMARKS
N.O. AUDUBON     N/A     63 N/A N/A MISG        N/A
N.O. INTL ARPT PTCLDY    61  43  51 N26G37    30.19R
N.O. LAKEFRONT CLEAR     62  47  57 N25G31    30.20R
N.O. DOWNTOWN* FAIR      61  39  44 N14G25    30.19R
SLIDELL        CLEAR     57  43  59 N10       30.19R
BATON ROUGE    CLEAR     56  43  61 N7        30.22R
BOOTHVILLE     CLEAR     63  49  60 N25G40    30.12R
BELLE CHASSE   PTCLDY    61  42  49 N14G26    30.17R
BOGALUSA*        N/A     55  43  63 N9        30.23R
NEW ROADS*     FAIR      52  45  76 N7        30.24R
GONZALES*      FAIR      58  47  64 N8G16     30.21R
HAMMOND*       CLEAR     57  43  58 N10       30.23R
HOUMA*         CLEAR     59  47  66 N14       30.17R
PORT FOURCHON* NOT AVBL

$$

LAZ041-044-053-054-010500-
SOUTHWEST LOUISIANA

CITY           SKY/WX    TMP DP  RH WIND       PRES   REMARKS
LAKE CHARLES   CLEAR     60  46  59 N12       30.24R
LAFAYETTE      CLEAR     59  46  62 N14       30.23R
PATTERSON      CLEAR     57  46  67 N12       30.22R
SALT POINT       N/A     61  48  62 N7G17     30.19R
NEW IBERIA     CLEAR     59  47  64 N13       30.23R
CHENAULT AIRPK CLEAR     56  47  71 N7        30.25R

$$

LAZ027-028-010500-
CENTRAL LOUISIANA

CITY           SKY/WX    TMP DP  RH WIND       PRES   REMARKS
FORT POLK      CLEAR     54  46  73 N8        30.27R
ALEXANDRIA INT CLEAR     53  45  74 N6        30.26R
ALEXANDRIA     CLEAR     53  45  74 N3        30.27R

$$

LAZ001-002-010500-
NORTHWEST LOUISIANA

CITY           SKY/WX    TMP DP  RH WIND       PRES   REMARKS
SHREVEPORT     CLEAR     54  41  61 N13       30.31R
BARKSDALE AFB  CLEAR     51  39  63 N7        30.32R
DTN SHREVEPORT CLEAR     52  39  61 N6        30.33R

$$

LAZ014-016-010500-
NORTHEAST LOUISIANA

CITY           SKY/WX    TMP DP  RH WIND       PRES   REMARKS
MONROE         CLEAR     52  33  48 NE14G23   30.32R
TALLULAH       CLEAR     50  30  46 N17       30.30R

$$




USA.gov is the U.S. government's official web portal to all federal, state and local government web resources and services.